NEE-01 PEGASUS

Last updated on Sat Feb 09 2019 03:04:19 GMT+0000 (Coordinated Universal Time)

1 39151U 13018B 19039.80445398 .00000134 00000-0 24714-4 0 9995 2 39151 97.9713 137.2042 0015741 261.5923 98.3504 14.79996674312515
UTC large
Height (km)
Speed (km/s)
/
Latitude / Longitude
Inclination (degrees)
Orbital Period (minutes)
Azimuth
Elevation
Range (km)
Doppler Factor

Next 0 passes for location: London (51.5072 / 0.1276)

Sorry there are no passes over London.